sat.trackr.live / text

‹ back to catalog

ONEWEB-0343

NORAD 49209 · 2021-083Z

PAYLOAD ACTIVE UNKNOWN

§ Identity

Operator
Country
UK
Launch date
2021-09-14
Launch site
TYMSC
Launch vehicle
Mass (kg)
RCS (m²)

Purposes: comms

External: N2YO · Heavens-Above · Gunter

§ Orbital elements

Epoch: 2026-09-20T03:30:20.943072Z

Period
109.20 min
Inclination
87.9161°
Eccentricity
0.0001651
Mean motion
13.18686608 rev/d
Perigee alt
1,188.5 km
Apogee alt
1,191.0 km
Semi-major
7,567.9 km
B*
4.7441e-4
RAAN
316.5885°
Arg perigee
87.7795°
Mean anomaly
272.3526°
Rev number
24,255

§ Raw data

ONEWEB-03431 49209U 21083Z   26263.14607573  .00000200  00000+0  47441-3 0  99942 49209  87.9161 316.5885 0001651  87.7795 272.3526 13.18686608242552

JSON: /api/v1/satellites/49209 · /tle

For live sub-satellite position, see the globe view (requires WebGL).

§ Visibility from observer

Set your observer location to see the next 7 days of passes ≥ 10°. The values pass through the URL so the page stays shareable.

No JS? Fill the form by hand. The geolocation button needs JavaScript.